Simultaneous Nadir Overpasses (SNOs) Predictions

Prediction of SNOs between AURA and NPP Satellite Orbit:

Table of predicted SNOs for the next 14.0 days since TLE Epoch: 11/29/2013
Index Date (AURA) Time (AURA) Lat,Lon (AURA) SZA (AURA ) Date (NPP) Time (NPP) Lat,Lon (NPP) SZA (NPP ) Distance(km) Time Diff (sec)
1 11/29/2013 18:19:48 -78.58, -23.60 65.74 11/29/2013 18:19:01 -78.57, -23.71 65.68 2.44 47
2 11/29/2013 19:09:03 79.03, 146.57 113.71 11/29/2013 19:09:33 79.03, 146.62 113.68 1.18 30
3 12/02/2013 10:36:11 -78.74, 93.16 65.48 12/02/2013 10:35:56 -78.73, 93.06 65.45 2.18 15
4 12/02/2013 11:25:27 79.14, -96.86 114.02 12/02/2013 11:26:29 79.15, -96.78 113.96 1.79 62
5 12/05/2013 02:03:16 78.53, 40.30 115.18 12/05/2013 02:02:16 78.53, 40.25 115.24 1.05 60
6 12/05/2013 02:52:33 -78.95,-149.72 65.34 12/05/2013 02:52:50 -78.96,-149.68 65.37 0.78 17
7 12/07/2013 18:19:39 78.69, 157.02 115.35 12/07/2013 18:19:12 78.68, 156.95 115.39 1.70 27
8 12/07/2013 19:08:57 -79.06, -33.18 65.12 12/07/2013 19:09:47 -79.06, -33.17 65.16 0.19 50
9 12/10/2013 09:46:43 -78.54, 104.47 64.16 12/10/2013 09:45:31 -78.54, 104.56 64.13 2.26 72
10 12/10/2013 10:36:01 78.86, -86.14 115.45 12/10/2013 10:36:07 78.86, -86.13 115.44 0.34 6
11 12/13/2013 02:03:05 -78.65,-139.06 64.03 12/13/2013 02:02:27 -78.65,-139.04 64.01 0.37 38




NCC Satellite Simultaneous Nadir Overpasses (SNOs) Prediction Service
